www.pogodaiklimat.ru

Погода и климат >> Архив погоды >> Россия >> Калининградская область >> Пионерский


ПОГОДА в Пионерском

  • Прогноз погоды в Пионерском
  • Монитор погоды в Пионерском

АРХИВ ПОГОДЫ в Пионерском

Время (UTC), дата Ветер
(напр.,м/с)
 
Видим.   Явления Облачность Т
(С)
Тd
(С)
f
(%)
Тe
(С)
Тes
(С)
Комфортность P
(гПа)
Po
(гПа)
Тmin
(С)
Tmax
(С)
R
(мм)
R24
(мм)
S
(см)
06 19.06 ЮВ 2-4
{4}
10 км 3/0
[Ci fib]
+21.8 +13.9 61 +25 +30 комфорт 1018.0 1012.4 +14.3
09 19.06 В 2-4
{4}
10 км 4/0
[Ci fib]
+25.7 +12.7 44 +27 +41 жарко 1016.9 1011.4
12 19.06 СВ 3-6
{6}
10 км 4/3 600 м
[Sc Ci fib]
+26.1 +16.0 54 +29 +38 жарко 1015.5 1010.0
15 19.06 СВ 1-2
{7}
10 км слаб. ливневой дождь 10/10 300 м
[Cb calv]
+19.9 +18.3 90 +24 +24 комфорт 1014.2 1008.5 2
18 19.06 СВ 1-2
{3}
10 км {ливн. осадки} 4/4 600 м
[Sc]
+21.6 +18.3 82 +26 +27 душно 1012.8 1007.2 +26.9 2
21 19.06 ЮВ 1-2
{3}
10 км 6/6 600 м
[Sc]
+20.3 +16.0 76 +24 +24 комфорт 1012.4 1006.8
00 20.06 ЮВ 1-3
{4}
10 км 6/0
[Ci fib]
+19.9 +15.2 74 +23 +23 комфорт 1011.4 1005.8
03 20.06 Ю 1-3
{4}
10 км 6/3 600 м
[Sc Ci fib]
+18.6 +15.7 83 +21 +21 комфорт 1010.9 1005.3 +18.5 0.0
06 20.06 Ю 1-3
{4}
10 км 8/0
[Ci fib]
+22.9 +18.0 74 +28 +34 душно 1010.5 1005.0 +18.5
09 20.06 З 2-5
{6}
10 км 8/0
[Ci fib]
+25.4 +19.1 68 +30 +43 душно 1011.0 1005.5
12 20.06 Ю 2-4
{4}
10 км 8/0
[Ci fib]
+29.0 +18.0 51 +33 +46 очень
душно
1010.0 1004.6
15 20.06 штиль 0-1
{4}
10 км 9/8 600 м
[Sc Ci fib]
+26.5 +17.6 58 +31 +32 душно 1009.8 1004.3
18 20.06 З 1-2
{11}
10 км гроза, ливневой дождь 10/10 300 м
[Cb cap]
+18.1 +16.4 90 +19 +19 1010.9 1005.3 +30.1 1
21 20.06 ЮЗ 1-2
{3}
4000 м дымка {гроза, ливн. осадки} 6/6 600 м
[Sc]
+16.8 +15.6 93 +18 +18 1013.1 1007.4
00 21.06 З 2-2
{2}
4000 м дымка 3/0
[Ci fib]
+15.1 +14.4 96 +15 +15 1013.3 1007.6
03 21.06 ЮЗ 1-2
{3}
4000 м дымка 9/4 600 м
[Sc Ci fib]
+15.3 +14.7 96 +16 +16 1013.7 1008.0 +14.9 1
06 21.06 З 2-4
{4}
4000 м дымка 9/4 600 м
[Sc Ci fib]
+19.1 +17.4 90 +21 +24 комфорт 1015.1 1009.5 +14.9 0.0
09 21.06 З 3-6
{6}
10 км 8/3 600 м
[Sc Ci fib]
+21.3 +17.2 77 +25 +32 комфорт 1016.1 1010.5
12 21.06 З 1-4
{5}
10 км 9/4 600 м
[Sc Ci fib]
+21.1 +17.3 79 +25 +34 комфорт 1016.8 1011.2
15 21.06 З 1-3
{5}
4000 м в посл. час ливневой дождь 10/10 300 м
[Cb calv]
+18.4 +17.2 93 +20 +20 1016.9 1011.2 1
18 21.06 СЗ 1-2
{4}
10 км {ливн. осадки} 9/9 600 м
[Sc]
+17.9 +14.6 81 +19 +19 1017.7 1012.0 +22.5 2
21 21.06 З 2-3
{5}
10 км 8/8 600 м
[Sc Ci fib]
+16.7 +14.5 87 +17 +17 1019.0 1013.3
00 22.06 З 2-5
{9}
10 км 8/8 600 м
[Sc]
+16.6 +12.9 79 +17 +17 1019.7 1014.0
03 22.06 З 1-5
{6}
10 км 3/0
[Ci fib]
+16.2 +10.0 67 +17 +17 1021.3 1015.5 +15.7
06 22.06 З 2-6
{6}
10 км ясно +18.7 +10.2 58 +20 +26 1023.2 1017.5 +15.7
09 22.06 З 1-4
{5}
10 км 6/6 600 м
[Sc]
+19.6 +12.1 62 +22 +29 комфорт 1024.8 1019.1
12 22.06 З 2-4
{5}
10 км 3/3 600 м
[Sc]
+19.4 +11.3 59 +21 +32 комфорт 1025.6 1019.9
15 22.06 СЗ 1-4
{5}
10 км 3/3 600 м
[Sc]
+19.0 +9.8 55 +21 +26 комфорт 1025.2 1019.5
18 22.06 С 1-2
{5}
10 км ясно +15.6 +9.1 65 +16 +17 1025.1 1019.3 +20.3
21 22.06 ЮЗ 1-2
{2}
10 км 3/0
[Ci fib]
+11.1 +8.8 86 +11 +11 1025.4 1019.5
00 23.06 ЮЗ 1-1
{2}
10 км 4/0
[Ci fib]
+9.1 +7.8 92 +8 +8 1025.5 1019.6
03 23.06 ЮЗ 1-2
{2}
4000 м дымка 3/0
[Ci fib]
+8.6 +7.6 93 +8 +8 1026.2 1020.3 +8.0
06 23.06 СЗ 1-2
{2}
10 км 3/3 600 м
[Sc]
+18.0 +10.2 60 +19 +24 1026.3 1020.5 +8.0
09 23.06 СВ 1-3
{4}
10 км 3/3 600 м
[Sc Ci fib]
+19.3 +11.0 59 +21 +33 комфорт 1026.3 1020.6
12 23.06 С 1-3
{4}
10 км 3/0
[Ci fib]
+19.6 +10.7 56 +22 +38 комфорт 1026.3 1020.6
15 23.06 СЗ 1-3
{4}
10 км 6/0
[Ci fib]
+19.9 +9.1 50 +22 +29 комфорт 1025.8 1020.1
18 23.06 штиль 0-3
{4}
10 км 4/0
[Ci fib]
+16.6 +8.9 60 +17 +17 1025.9 1020.0 +20.6
21 23.06 С 1-1
{2}
10 км 8/0
[Ci fib]
+13.9 +9.6 75 +14 +14 1026.4 1020.5
00 24.06 ЮЗ 1-1
{1}
10 км 6/0
[Ci fib]
+10.3 +9.0 92 +10 +10 1027.6 1021.7
03 24.06 штиль 0-1
{2}
10 км 9/0
[Ci fib]
+13.3 +11.9 91 +13 +13 1027.6 1021.8 +9.7
06 24.06 С 1-3
{4}
10 км 9/0
[Ci fib]
+19.7 +13.7 68 +23 +28 комфорт 1028.6 1022.8 +9.7
09 24.06 С 1-2
{4}
10 км 8/0
[Ci fib]
+21.7 +14.1 62 +25 +39 комфорт 1029.0 1023.2
12 24.06 С 1-3
{3}
10 км 9/3 600 м
[Sc Ci fib]
+22.9 +14.7 60 +27 +37 душно 1029.0 1023.3
15 24.06 штиль 0-2
{4}
10 км 9/3 600 м
[Sc Ci fib]
+21.9 +16.2 70 +26 +31 душно 1028.9 1023.2
18 24.06 СВ 1-4
{5}
10 км 9/0
[Ci fib]
+19.0 +14.9 77 +21 +22 комфорт 1029.2 1023.5 +23.7
21 24.06 В 1-2
{3}
10 км 9/0
[Ci fib]
+17.9 +14.2 79 +19 +19 1029.7 1023.9
00 25.06 В 1-2
{3}
10 км 9/0
[Ci fib]
+15.9 +14.8 93 +17 +17 1029.8 1023.9
03 25.06 ЮВ 2-3
{3}
10 км 9/0
[Ci fib]
+15.6 +11.9 79 +16 +16 1029.2 1023.4 +14.8
06 25.06 В 1-3
{4}
10 км 9/0
[Ci fib]
+18.7 +13.1 70 +21 +26 комфорт 1029.5 1023.8 +14.8
09 25.06 В 1-2
{3}
10 км 8/0
[Ci fib]
+25.8 +14.3 49 +28 +42 жарко 1029.2 1023.5
12 25.06 СВ 2-5
{5}
10 км 8/0
[Ci fib]
+26.2 +15.7 52 +29 +42 жарко 1028.1 1022.5
15 25.06 СВ 1-3
{5}
10 км 8/0
[Ci fib]
+26.2 +15.1 50 +29 +35 жарко 1026.6 1021.0
18 25.06 штиль 0-1
{4}
10 км 9/0
[Ci fib]
+23.4 +15.7 62 +28 +28 душно 1025.9 1020.2 +28.0
21 25.06 штиль 0-1
{2}
10 км 8/0
[Ac und Ci fib]
+19.8 +14.9 73 +22 +22 комфорт 1025.0 1019.3
00 26.06 Ю 1-2
{2}
10 км 9/0
[Ci fib]
+19.1 +12.6 66 +21 +21 комфорт 1023.7 1018.0

 

Местоположение метеостанции Пионерский (Калининградская область, Россия): широта 54.95 долгота 20.21 высота над уровнем моря 28 м.

В архиве по умолчанию представлена погода в Пионерском за последнюю неделю. Архивные данные за месяц целиком и за предыдущие месяцы, начиная с января 2011 года, Вы можете получить, выбрав интересующий диапазон дат из раскрывающегося списка и нажав кнопку "Ввод!".


*Определитесь, кто Вы:
робот инопланетянин человек

Внимание! Время в таблицах - всемирное. Для получения местного времени необходимо прибавить поправку, которая равна 2 ч.

Смотрите также архив погоды в соседних городах и на ближайших метеорологических станциях:

Погода в Рыбном Порту (Калининградская область, Россия) (32 км)
Погода в Калининграде (Калининградская область, Россия) (38 км)
Погода в Балтийске (Калининградская область, Россия) (40 км)
Погода в Рыбачем (Калининградская область, Россия) (46 км)
Погода в Мамоново (Калининградская область, Россия) (56 км)
Погода в Ниде (Литва) (66 км)
Погода в Шилуте (Литва) (91 км)
Погода в Железнодорожном (Калининградская область, Россия) (95 км)
Погода в Хеле (Польша) (97 км)
Погода в Эльблонге (Польша) (100 км)

Пояснения к столбцам:

Ветер - указаны скорость ветра в м/с - средняя за 10 мин, порывы в срок и между сроками (в фигурных скобках) и направление, откуда дует ветер: С - северный, СВ - северо-восточный, В - восточный, ЮВ - юго-восточный, Ю - южный, ЮЗ - юго-западный, З - западный, СЗ - северо-западный.
Видимость - горизонтальная дальность видимости в метрах или километрах. При видимости от 1 до 10 км при отсутствии осадков обычно наблюдается дымка, при ухудшении видимости до 1 км и менее - туман. В сухую погоду видимость может ухудшаться дымом, пылью или мглою.
Явления - указаны атмосферные явления, наблюдавшиеся в срок или в последний час перед сроком; фигурными скобками обозначены явления, наблюдавшиеся между сроками (за 1-3 часа до срока); квадратными скобками обозначены град или гололедные отложения с указанием их диаметра в мм.
Облачность - указаны через наклонную черту общая и нижняя облачность в баллах и высота нижней границы облаков в метрах; квадратными скобками обозначены формы облаков: Ci - перистые, Cs - перисто-слоистые, Cc - перисто-кучевые, Ac - высококучевые, As - высокослоистые, Sc - слоисто-кучевые, Ns - слоисто-дождевые, Cu - кучевые, Cb - кучево-дождевые. Подробнее классификацию облаков см. в Атласе облаков (PDF).
T - Температура воздуха - температура, измеренная на высоте 2 м над землей.
Td - Температура точки росы - температура, при понижении до которой содержащийся в воздухе водяной пар достигнет насыщения.
f - Относительная влажность воздуха - влажноcть воздуха, измеренная на высоте 2 м над землей.
Te - Эффективная температура - температура, которую ощущает одетый по сезону человек в тени. Характеристика душности погоды. При расчете учитывается влияние влажности воздуха и скорости ветра на теплоощущения человека.
Tes - Эффективная температура на солнце - температура, которую ощущает человек, с поправкой на солнечный нагрев. Характеристика знойности погоды. Зависит от высоты солнца над горизонтом, облачности и скорости ветра. Ночью, в пасмурную погоду, а также при ветре 12 м/с и более поправка равна нулю.
P - Атмосферное давление - приведенное к уровню моря атмосферное давление.
Po - Атмосферное давление - измеренное на уровне метеостанции атмосферное давление.
Tmin - Минимальная температура - минимум температуры воздуха на высоте 2 м над землей.
Tmax - Максимальная температура - максимум температуры воздуха на высоте 2 м над землей.
R - Количество осадков - Количество выпавших осадков за период времени, мм. При наведении курсора мыши на число - период времени, за который выпало указанное количество осадков.
R24 - Количество осадков - Количество выпавших осадков за 24 часа, мм.
S - Снежный покров - Высота снежного покрова, см. При наведении курсора мыши на число - состояние снежного покрова и степень покрытия местности в баллах.